EA3BIN-13 Weather Reports


Display with metric or nautical units.
time (UTC)temp
F
wind
direction
speed
MPH
gust
MPH
rain 1hr
in
rain 24hr
in
rain mn
in
humidity
%
barometer
mb
20260901132036 86 0.0 0.0 0.00 0.00 0.00 52 1018.7
20260901131036 90 0.0 0.0 0.00 0.00 0.00 45 1018.7
20260901130036 92 0.0 0.0 0.00 0.00 0.00 45 1018.5
20260901125036 89 0.0 0.0 0.00 0.00 0.00 47 1018.9
20260901124036 91 0.0 0.0 0.00 0.00 0.00 44 1018.7
20260901123041 93 0.0 0.0 0.00 0.00 0.00 42 1018.4
20260901122036 92 0.0 0.0 0.00 0.00 0.00 41 1018.6
20260901121037 93 0.0 0.0 0.00 0.00 0.00 43 1018.8
20260901120036 89 0.0 0.0 0.00 0.00 0.00 48 1019.0
20260901115036 88 0.0 0.0 0.00 0.00 0.00 48 1019.1
20260901114042 88 0.0 0.0 0.00 0.00 0.00 48 1019.1
20260901113036 86 0.0 0.0 0.00 0.00 0.00 52 1019.5
20260901112036 86 0.0 0.0 0.00 0.00 0.00 55 1019.5
20260901111036 87 0.0 0.0 0.00 0.00 0.00 52 1019.5
20260901110037 89 0.0 0.0 0.00 0.00 0.00 48 1019.3
20260901105036 88 0.0 0.0 0.00 0.00 0.00 50 1019.4
20260901104036 86 0.0 0.0 0.00 0.00 0.00 52 1019.4
20260901103036 84 0.0 0.0 0.00 0.00 0.00 57 1019.9
20260901102042 84 0.0 0.0 0.00 0.00 0.00 54 1019.9
20260901101036 86 0.0 0.0 0.00 0.00 0.00 53 1019.8
20260901100036 84 0.0 0.0 0.00 0.00 0.00 56 1019.9
20260901095036 85 0.0 0.0 0.00 0.00 0.00 57 1019.9
20260901094042 83 0.0 0.0 0.00 0.00 0.00 59 1019.9
20260901093036 83 0.0 0.0 0.00 0.00 0.00 62 1019.8
20260901092036 82 0.0 0.0 0.00 0.00 0.00 63 1019.8
20260901091036 82 0.0 0.0 0.00 0.00 0.00 66 1019.6
20260901090037 81 0.0 0.0 0.00 0.00 0.00 73 1019.7
20260901085036 80 0.0 0.0 0.00 0.00 0.00 76 1019.6
20260901084036 80 0.0 0.0 0.00 0.00 0.00 78 1019.7
20260901083047 79 0.0 0.0 0.00 0.00 0.00 81 1019.6
20260901082042 78 0.0 0.0 0.00 0.00 0.00 90 1019.7
20260901081036 77 0.0 0.0 0.00 0.00 0.00 93 1019.7
20260901080036 76 0.0 0.0 0.00 0.00 0.00 99 1019.9
20260901075047 76 0.0 0.0 0.00 0.00 0.00 10 1019.9
20260901074036 75 0.0 0.0 0.00 0.00 0.00 10 1019.9
20260901073036 75 0.0 0.0 0.00 0.00 0.00 10 1020.0
20260901072036 73 0.0 0.0 0.00 0.00 0.00 10 1020.2
20260901071036 72 0.0 0.0 0.00 0.00 0.00 10 1020.3
20260901070036 72 0.0 0.0 0.00 0.00 0.00 10 1020.4
20260901065036 71 0.0 0.0 0.00 0.00 0.00 10 1020.6
20260901064036 71 0.0 0.0 0.00 0.00 0.00 10 1020.7
20260901063036 70 0.0 0.0 0.00 0.00 0.00 10 1020.6
20260901062037 70 0.0 0.0 0.00 0.00 0.00 10 1020.6
20260901061036 70 0.0 0.0 0.00 0.00 0.00 10 1020.5
20260901060036 69 0.0 0.0 0.00 0.00 0.00 10 1020.5
20260901055041 68 0.0 0.0 0.00 0.00 0.00 10 1020.6
20260901054042 68 0.0 0.0 0.00 0.00 0.00 10 1020.5
20260901053036 68 0.0 0.0 0.00 0.00 0.00 10 1020.6
20260901052036 68 0.0 0.0 0.00 0.00 0.00 10 1020.5
20260901051041 68 0.0 0.0 0.00 0.00 0.00 10 1020.4
20260901050036 68 0.0 0.0 0.00 0.00 0.00 10 1020.5
20260901045036 68 0.0 0.0 0.00 0.00 0.00 10 1020.5
20260901044036 68 0.0 0.0 0.00 0.00 0.00 10 1020.4
20260901043036 68 0.0 0.0 0.00 0.00 0.00 10 1020.5
20260901042036 69 0.0 0.0 0.00 0.00 0.00 10 1020.5
20260901041036 69 0.0 0.0 0.00 0.00 0.00 10 1020.5
20260901040036 69 0.0 0.0 0.00 0.00 0.00 10 1020.5
20260901035036 69 0.0 0.0 0.00 0.00 0.00 10 1020.5
20260901034036 69 0.0 0.0 0.00 0.00 0.00 10 1020.6
20260901033036 69 0.0 0.0 0.00 0.00 0.00 10 1020.5
20260901032037 69 0.0 0.0 0.00 0.00 0.00 10 1020.5
20260901031036 70 0.0 0.0 0.00 0.00 0.00 10 1020.5
20260901030036 70 0.0 0.0 0.00 0.00 0.00 10 1020.6
20260901025036 70 0.0 0.0 0.00 0.00 0.00 10 1020.6
20260901024036 70 0.0 0.0 0.00 0.00 0.00 10 1020.7
20260901023036 71 0.0 0.0 0.00 0.00 0.00 10 1020.8
20260901022036 71 0.0 0.0 0.00 0.00 0.00 10 1020.9
20260901021036 72 0.0 0.0 0.00 0.00 0.00 10 1020.9
20260901020036 72 0.0 0.0 0.00 0.00 0.00 10 1021.0
20260901015036 72 0.0 0.0 0.00 0.00 0.00 10 1021.1
20260901014036 73 0.0 0.0 0.00 0.00 0.00 10 1021.0
20260901013041 74 0.0 0.0 0.00 0.00 0.00 10 1021.0
20260901012036 73 0.0 0.0 0.00 0.00 0.00 10 1021.0
20260901011036 73 0.0 0.0 0.00 0.00 0.00 10 1021.0
20260901010036 73 0.0 0.0 0.00 0.00 0.00 10 1021.0
20260901005036 73 0.0 0.0 0.00 0.00 0.00 10 1021.1
20260901004036 73 0.0 0.0 0.00 0.00 0.00 10 1021.3
20260901003036 73 0.0 0.0 0.00 0.00 0.00 10 1021.2
20260901002036 73 0.0 0.0 0.00 0.00 0.00 10 1021.1
20260901001036 73 0.0 0.0 0.00 0.00 0.00 10 1021.1
20260901000036 74 0.0 0.0 0.00 0.00 0.00 10 1021.2
20260831235036 74 0.0 0.0 0.00 0.00 0.00 10 1021.2
20260831234036 74 0.0 0.0 0.00 0.00 0.00 10 1021.1
20260831233036 74 0.0 0.0 0.00 0.00 0.00 10 1021.0
20260831232036 74 0.0 0.0 0.00 0.00 0.00 10 1020.9
20260831231036 74 0.0 0.0 0.00 0.00 0.00 10 1020.9
20260831230036 74 0.0 0.0 0.00 0.00 0.00 10 1020.8
20260831225036 74 0.0 0.0 0.00 0.00 0.00 10 1020.9
20260831224036 74 0.0 0.0 0.00 0.00 0.00 10 1020.8
20260831223037 74 0.0 0.0 0.00 0.00 0.00 10 1020.7
20260831222037 75 0.0 0.0 0.00 0.00 0.00 10 1020.6
20260831221036 75 0.0 0.0 0.00 0.00 0.00 10 1020.6
20260831220037 74 0.0 0.0 0.00 0.00 0.00 10 1020.7
20260831215036 74 0.0 0.0 0.00 0.00 0.00 10 1020.6
20260831214036 75 0.0 0.0 0.00 0.00 0.00 10 1020.5
20260831213036 75 0.0 0.0 0.00 0.00 0.00 10 1020.4
20260831212036 75 0.0 0.0 0.00 0.00 0.00 10 1020.4
20260831211036 75 0.0 0.0 0.00 0.00 0.00 10 1020.3
20260831210036 75 0.0 0.0 0.00 0.00 0.00 10 1020.2
20260831205036 76 0.0 0.0 0.00 0.00 0.00 96 1020.2
20260831204036 76 0.0 0.0 0.00 0.00 0.00 97 1020.1
20260831203037 76 0.0 0.0 0.00 0.00 0.00 93 1020.0
20260831202037 76 0.0 0.0 0.00 0.00 0.00 89 1019.8
20260831201047 77 0.0 0.0 0.00 0.00 0.00 86 1019.7
20260831200036 78 0.0 0.0 0.00 0.00 0.00 83 1019.4
20260831195036 78 0.0 0.0 0.00 0.00 0.00 83 1019.2
20260831194036 78 0.0 0.0 0.00 0.00 0.00 83 1019.2
20260831193037 78 0.0 0.0 0.00 0.00 0.00 81 1019.0
20260831192036 78 0.0 0.0 0.00 0.00 0.00 81 1018.8
20260831191036 78 0.0 0.0 0.00 0.00 0.00 80 1018.6
20260831190036 78 0.0 0.0 0.00 0.00 0.00 81 1018.4
20260831185037 78 0.0 0.0 0.00 0.00 0.00 81 1018.3
20260831184036 78 0.0 0.0 0.00 0.00 0.00 79 1018.3
20260831183036 78 0.0 0.0 0.00 0.00 0.00 77 1018.2
20260831182036 79 0.0 0.0 0.00 0.00 0.00 76 1018.0
20260831181036 80 0.0 0.0 0.00 0.00 0.00 72 1017.9
20260831180036 81 0.0 0.0 0.00 0.00 0.00 70 1017.7
20260831175037 81 0.0 0.0 0.00 0.00 0.00 69 1017.7
20260831174036 82 0.0 0.0 0.00 0.00 0.00 65 1017.5
20260831173036 83 0.0 0.0 0.00 0.00 0.00 59 1017.4
20260831172036 91 0.0 0.0 0.00 0.00 0.00 43 1016.6
20260831171036 105 0.0 0.0 0.00 0.00 0.00 29 1015.4
20260831170042 103 0.0 0.0 0.00 0.00 0.00 29 1015.6
20260831165036 111 0.0 0.0 0.00 0.00 0.00 25 1015.1
20260831164036 115 0.0 0.0 0.00 0.00 0.00 24 1014.9
20260831163036 103 0.0 0.0 0.00 0.00 0.00 31 1015.6
20260831162036 101 0.0 0.0 0.00 0.00 0.00 32 1016.0
20260831161036 116 0.0 0.0 0.00 0.00 0.00 20 1014.8
20260831160042 124 0.0 0.0 0.00 0.00 0.00 18 1014.2
20260831155036 124 0.0 0.0 0.00 0.00 0.00 18 1014.3
20260831154036 125 0.0 0.0 0.00 0.00 0.00 18 1014.3
20260831153042 121 0.0 0.0 0.00 0.00 0.00 20 1014.7
20260831152036 122 0.0 0.0 0.00 0.00 0.00 20 1014.5
20260831151042 121 0.0 0.0 0.00 0.00 0.00 20 1014.6
20260831150036 124 0.0 0.0 0.00 0.00 0.00 19 1014.3
20260831145037 118 0.0 0.0 0.00 0.00 0.00 22 1014.7
20260831144036 117 0.0 0.0 0.00 0.00 0.00 22 1014.7
20260831143037 107 0.0 0.0 0.00 0.00 0.00 27 1015.7
20260831142036 102 0.0 0.0 0.00 0.00 0.00 36 1016.2
20260831141037 98 0.0 0.0 0.00 0.00 0.00 38 1016.3
20260831140041 92 0.0 0.0 0.00 0.00 0.00 46 1017.0
20260831135036 92 0.0 0.0 0.00 0.00 0.00 44 1017.0
20260831134036 93 0.0 0.0 0.00 0.00 0.00 43 1016.9
20260831133048 93 0.0 0.0 0.00 0.00 0.00 43 1016.8